Regional Weather Roundup
Issued by NWS

Home | Current Version | Previous Version | Graphics & Text | Print | Product List | Glossary On
Versions: 1 2 3 4 5 6 7 8 9 10 11 12 13 14 15 16 17 18 19 20 21 22 23 24 25 26 27 28 29 30 31 32 33 34 35 36 37 38 39 40 41 42 43 44 45 46 47 48 49 50
000
ASUS43 KBIS 240602
RWRND

NORTH DAKOTA REGIONAL WEATHER ROUNDUP
NATIONAL WEATHER SERVICE BISMARCK ND
100 AM CDT SUN JUL 24 2016

NOTE: "FAIR" INDICATES FEW OR NO CLOUDS BELOW 12,000 FEET WITH NO
SIGNIFICANT WEATHER AND/OR OBSTRUCTIONS TO VISIBILITY.


NDZ001>003-009>011-017-240700-
NORTHWEST NORTH DAKOTA

CITY           SKY/WX    TMP DP  RH WIND       PRES   REMARKS
WILLISTON      CLEAR     63  53  70 W12       29.98R
6HR MIN TEMP:  63; 6HR MAX TEMP:  79;

MINOT          CLEAR     69  59  70 W13       29.88R
MINOT AFB      CLEAR     62  59  90 W13       29.87R
$$

NDZ018>021-031>035-040>046-240700-
SOUTHWEST NORTH DAKOTA

CITY           SKY/WX    TMP DP  RH WIND       PRES   REMARKS
BISMARCK       CLEAR     67  58  72 W6        29.94R
6HR MIN TEMP:  67; 6HR MAX TEMP:  84;

DICKINSON      CLEAR     56  51  84 NW9       30.01R
GARRISON         N/A     62  58  86 NW10      29.92R
6HR MIN TEMP:  62; 6HR MAX TEMP:  80;

HETTINGER ARPT CLEAR     58  47  66 W5        30.04R
$$

NDZ004>008-012>016-024-026-027-054-240700-
NORTHEAST NORTH DAKOTA

CITY           SKY/WX    TMP DP  RH WIND       PRES   REMARKS
GRAND FORKS    CLEAR     67  63  87 SW7       29.74R
GRND FRKS AFB  CLEAR     66  62  85 W9        29.76R
DEVILS LAKE    CLEAR     67  60  78 W15G24    29.81R
$$

NDZ022-023-025-028>030-036>039-047>053-240700-
SOUTHEAST NORTH DAKOTA

CITY           SKY/WX    TMP DP  RH WIND       PRES   REMARKS
FARGO          CLEAR     70  68  93 SW6       29.78S
6HR MIN TEMP:  70; 6HR MAX TEMP:  82; 6HR PCP:  0.15;

JAMESTOWN      CLEAR     67  59  75 NW12      29.86R
$$





USA.gov is the U.S. government's official web portal to all federal, state and local government web resources and services.